Flag for Brazil Weather past 2 weeks in Passo Fundo, Rio Grande do Sul, Brazil

Now
46 °F

Clear.


Feels Like: 46 °F
Forecast: 32 / 54 °F
Wind: 2 mph from Northwest

Location: Porto Alegre Aero-Porto

Current Time: Jul 26, 2014 at 2:16:17 AM

Latest Report: Jul 26, 2014 at 1:00 AM


Visibility: 10 mi

Pressure: 30.18 "Hg

Humidity: 87%

Dew point: 43 °F

Location of Passo FundoLocation

Historic Weather in Passo Fundo — Graph

°F

Passo Fundo temperature yesterday

Maximum temperature yesterday: 54 °F (at 2:00 PM)
Minimum temperature yesterday: 45 °F (at 11:00 PM)
Average temperature yesterday: 49 °F

Past Weeks' High & Low Weather Summary

 TemperatureHumidityPressure
High81 °F (Jul 22, 2:00 PM)100% (Jul 13, 5:00 AM)30.33 "Hg (Jul 13, 5:00 AM)
Low39 °F (Jul 18, 7:00 AM)32% (Jul 22, 2:00 PM)29.65 "Hg (Jul 23, 7:00 PM)
Average60 °F82%30.12 "Hg
* Reported Jul 11 1:00 AM — Jul 26 1:00 AM, Passo Fundo, Weather by CustomWeather, © 2014

Note: Actual official high and low records may vary slightly from our data, if they occured in-between our weather recording intervals... More about our weather records

Advertising

Passo Fundo weather history for previous 24 hours

 ConditionsComfort  
Time TempWeatherWind HumidityBarometerVisibility
1:00 AM
Jul 26
46 °FClear.2 mph87%30.18 "Hg10 mi
12:00 AM46 °FClear.3 mph87%30.21 "Hg10 mi
11:00 PM
Jul 25
45 °FClear.2 mph87%30.18 "Hg10 mi
10:00 PM48 °FClear.6 mph71%30.21 "Hg10 mi
9:00 PM46 °FClear.3 mph76%30.21 "Hg10 mi
8:00 PM48 °FClear.5 mph66%30.18 "Hg10 mi
7:00 PM48 °FClear.5 mph62%30.18 "Hg10 mi
6:00 PM50 °FClear.8 mph62%30.18 "Hg10 mi
5:00 PM54 °FClear.12 mph51%30.18 "Hg10 mi
4:00 PM54 °FSunny.12 mph51%30.18 "Hg10 mi
3:00 PM54 °FSunny.15 mph47%30.18 "Hg10 mi
2:00 PM54 °FSunny.10 mph54%30.15 "Hg10 mi
1:00 PM52 °FSunny.13 mph58%30.18 "Hg10 mi
12:00 PM52 °FSunny.10 mph62%30.21 "Hg10 mi
11:00 AM50 °FSunny.10 mph71%30.21 "Hg10 mi
10:00 AM50 °FSunny.10 mph67%30.21 "Hg10 mi
9:00 AM48 °FPassing clouds.8 mph71%30.18 "HgN/A
8:00 AM46 °FSunny.7 mph82%30.18 "Hg10 mi
7:00 AM46 °FScattered clouds.9 mph82%30.15 "HgN/A
6:00 AM48 °FPassing clouds.10 mph76%30.15 "Hg4 mi
5:00 AM48 °FMostly cloudy.8 mph76%30.15 "Hg4 mi
4:00 AM48 °FMostly cloudy.8 mph76%30.15 "Hg4 mi
3:00 AM48 °FMostly cloudy.9 mph82%30.12 "Hg3 mi
2:00 AM50 °FFog.10 mph82%30.12 "Hg2 mi
Weather by CustomWeather, © 2014

See weather overviewHow to use our weather pages